Location: Alberta Star Party
(51.6612°N, 112.9089°W)
Time: 22:22:21
(UTC-06:00)

Amateur Radio Satellites - All Passes

Search period start: 24 July 2016 21:52
Search period end: 25 July 2016 21:52
Location: Alberta Star Party, 51.6612°N, 112.9089°W

Satellite Date Start Highest point End Downlink Frequencies (MHz)
Time Altitude Azimuth
Oscar 11 24 Jul 22:02:41 22:07:01 65° 259° (WSW) 22:11:22 145.826/435.025
CANX-2 24 Jul 22:07:16 22:09:03 12° 274° (W) 22:10:49 2200.000
PCSat 24 Jul 22:08:58 22:14:22 63° 312° (NW) 22:19:47 145.827
PRISM 24 Jul 22:13:05 22:17:08 58° 102° (ESE) 22:21:11 437.425
AO-85 24 Jul 22:13:20 22:17:35 32° 31° (NNE) 22:21:30 145.980
AAUSAT CUBESAT 2 24 Jul 22:16:09 22:19:26 22° 268° (W) 22:22:43 437.432
CUTE 1.7 + AOD 2 24 Jul 22:22:57 22:23:10 10° 276° (W) 22:23:24 437.475
O/OREOS (USA 219) 24 Jul 22:24:06 22:28:31 68° 115° (ESE) 22:32:59 437.305
M-CUBED/EXP-1 PRIME 24 Jul 22:26:20 22:30:01 51° 254° (WSW) 22:34:04 437.505
AISAT 24 Jul 22:27:05 22:28:24 11° 51° (NE) 22:29:45 437.250
AIST 2 24 Jul 22:30:06 22:33:36 27° 118° (ESE) 22:37:08 435.215
BEESAT 2 24 Jul 22:30:23 22:34:01 33° 325° (NW) 22:37:41 435.950
BEESAT 3 24 Jul 22:30:26 22:33:43 24° 330° (NNW) 22:37:00 437.485
UNISAT 6 24 Jul 22:31:17 22:33:09 12° 84° (E) 22:35:00 437.425
DX 1 24 Jul 22:37:23 22:37:54 10° 50° (NE) 22:38:27 434.975-435.025
Cosmos 2491 24 Jul 22:41:07 22:49:40 65° 93° (E) 22:58:16 435.465 / 435.565
Cosmos 2504 24 Jul 22:44:57 22:53:23 65° 74° (ENE) 23:01:07 435.465 / 435.565
UWE-3 24 Jul 22:46:10 22:49:41 21° 270° (W) 22:53:16 435.000/436.395/437.385
ESTCUBE 1 24 Jul 22:48:00 22:51:34 24° 61° (ENE) 22:55:08 437.505/2401.250
ISS 24 Jul 22:50:42 22:51:24 11° 137° (SE) 22:52:06 145.825
ZACube-1 24 Jul 22:52:34 22:56:20 25° 268° (W) 23:00:12 437.345
FUNcube-1 24 Jul 22:53:06 22:56:56 26° 267° (W) 23:00:49 145.935
HUMSAT D 24 Jul 22:54:05 22:58:25 79° 257° (WSW) 23:02:45 437.325/437.525
UKube-1 24 Jul 22:55:00 22:56:39 12° 53° (NE) 22:58:18 .
AUBIESAT-1 24 Jul 22:55:13 22:58:42 32° 259° (WSW) 23:02:27 437.475
DELFI C3 24 Jul 23:01:08 23:04:47 34° 263° (W) 23:08:26 145.870
CUBEBUG 2 24 Jul 23:04:59 23:06:31 11° 277° (W) 23:08:05 437.445
ANTELSAT 24 Jul 23:08:23 23:12:18 26° 92° (E) 23:16:08 437.575/2403.000
YUBILEINY 24 Jul 23:10:04 23:18:16 45° 274° (W) 23:26:26 435.215
VELOX 1 24 Jul 23:16:05 23:19:43 26° 62° (ENE) 23:23:22 145.980
STRAND 1 24 Jul 23:19:52 23:22:00 13° 312° (NW) 23:24:08 437.568
CUBEBUG 1 24 Jul 23:24:10 23:28:00 32° 65° (ENE) 23:31:53 437.445
SPROUT 24 Jul 23:31:58 23:35:00 19° 59° (ENE) 23:38:02 437.525
50 SAT 24 Jul 23:33:09 23:36:25 31° 67° (ENE) 23:39:43 437.505
PRISM 24 Jul 23:49:12 23:52:06 19° 301° (WNW) 23:55:00 437.425
TIGRISAT 24 Jul 23:50:28 23:55:07 57° 100° (E) 23:59:40 435.000
AO-85 24 Jul 23:53:52 23:58:23 60° 234° (SW) 00:02:29 145.980
PCSat 24 Jul 23:54:35 23:58:49 22° 336° (NNW) 00:03:03 145.827
AISAT 24 Jul 23:59:43 00:04:03 64° 71° (ENE) 00:08:26 437.250
O/OREOS (USA 219) 25 Jul 00:04:51 00:08:23 22° 316° (NW) 00:11:57 437.305
UNISAT 6 25 Jul 00:05:56 00:10:39 81° 103° (ESE) 00:15:16 437.425
AIST 2 25 Jul 00:07:52 00:11:54 50° 319° (NW) 00:15:58 435.215
DX 1 25 Jul 00:08:58 00:13:12 58° 70° (ENE) 00:17:29 434.975-435.025
BEESAT 2 25 Jul 00:10:47 00:12:59 14° 347° (NNW) 00:15:11 435.950
BEESAT 3 25 Jul 00:10:51 00:12:42 13° 354° (N) 00:14:32 437.485
NANOSAT C BR1 25 Jul 00:15:23 00:18:32 20° 91° (E) 00:21:39 145.865
DUCHIFAT 1 25 Jul 00:20:55 00:24:10 21° 91° (E) 00:27:24 145.980
ESTCUBE 1 25 Jul 00:23:41 00:28:05 53° 260° (W) 00:32:31 437.505/2401.250
ISS 25 Jul 00:24:04 00:27:10 41° 156° (SSE) 00:30:16 145.825
UKube-1 25 Jul 00:27:40 00:31:57 71° 71° (ENE) 00:36:16 .
HUMSAT D 25 Jul 00:33:49 00:34:46 11° 275° (W) 00:35:44 437.325/437.525
QB50P1 25 Jul 00:35:46 00:39:37 31° 95° (E) 00:43:27 145.935-145.965
TISAT 1 25 Jul 00:36:50 00:40:05 22° 60° (ENE) 00:43:21 437.305
Cosmos 2504 25 Jul 00:38:58 00:46:14 35° 278° (W) 00:53:04 435.465 / 435.565
JAS-2 25 Jul 00:38:59 00:41:37 14° 86° (E) 00:44:18 435.910
Cosmos 2491 25 Jul 00:39:12 00:47:08 38° 297° (WNW) 00:55:07 435.465 / 435.565
POPSAT HIP 1 25 Jul 00:41:53 00:45:51 35° 96° (E) 00:49:48 437.405
ANTELSAT 25 Jul 00:44:43 00:49:14 48° 292° (WNW) 00:53:40 437.575/2403.000
BUGSAT 1 25 Jul 00:46:42 00:49:41 18° 90° (E) 00:52:39 437.445
VELOX 1 25 Jul 00:51:47 00:56:00 45° 261° (W) 01:00:15 145.980
AIST 1 25 Jul 00:52:58 00:57:01 37° 72° (ENE) 01:01:05
SWISSCUBE 25 Jul 00:59:25 01:01:38 13° 51° (NE) 01:03:51 437.505
CUBEBUG 1 25 Jul 01:00:22 01:04:17 33° 264° (W) 01:08:15 437.445
QB50P2 25 Jul 01:01:59 01:06:15 58° 101° (E) 01:10:28 145.880/145.840
POLYITAN 1 25 Jul 01:04:37 01:08:54 59° 101° (E) 01:13:09 437.675
SPROUT 25 Jul 01:06:17 01:10:32 64° 259° (WSW) 01:14:49 437.525
50 SAT 25 Jul 01:07:01 01:10:06 25° 265° (W) 01:13:13 437.505
BEESAT 25 Jul 01:20:01 01:23:07 17° 55° (NE) 01:26:12 436.000
GONETS M04 25 Jul 01:20:21 01:26:42 21° 50° (NE) 01:33:03
TIGRISAT 25 Jul 01:27:46 01:31:29 24° 300° (WNW) 01:35:09 435.000
AISAT 25 Jul 01:38:01 01:40:59 18° 270° (W) 01:43:58 437.250
ITUPSAT 1 25 Jul 01:40:28 01:44:17 24° 59° (ENE) 01:48:06 437.325
PCSat 25 Jul 01:40:57 01:44:14 16° 2° (N) 01:47:31 145.827
UNISAT 6 25 Jul 01:43:41 01:46:48 18° 304° (WNW) 01:49:51 437.425
DX 1 25 Jul 01:46:42 01:49:47 19° 269° (W) 01:52:54 434.975-435.025
AIST 2 25 Jul 01:48:27 01:51:17 17° 341° (NNW) 01:54:08 435.215
BEESAT 3 25 Jul 01:49:26 01:51:55 16° 18° (NNE) 01:54:24 437.485
BEESAT 2 25 Jul 01:50:13 01:52:23 14° 12° (NNE) 01:54:32 435.950
NANOSAT C BR1 25 Jul 01:50:24 01:54:36 55° 290° (WNW) 01:58:46 145.865
Cosmos 2499 25 Jul 01:52:23 01:58:16 21° 50° (NE) 02:03:50 435.465 / 435.565
DUCHIFAT 1 25 Jul 01:56:00 02:00:10 51° 290° (WNW) 02:04:18 145.980
ISS 25 Jul 02:00:12 02:03:28 90° 177° (S) 02:06:45 145.825
UKube-1 25 Jul 02:05:55 02:08:30 15° 271° (W) 02:11:05 .
TISAT 1 25 Jul 02:11:21 02:15:27 51° 260° (W) 02:19:36 437.305
QB50P1 25 Jul 02:11:31 02:15:25 34° 295° (WNW) 02:19:18 145.935-145.965
POPSAT HIP 1 25 Jul 02:17:47 02:21:35 31° 296° (WNW) 02:25:23 437.405
BUGSAT 1 25 Jul 02:21:14 02:25:25 59° 289° (WNW) 02:29:37 437.445
JAS-2 25 Jul 02:22:21 02:27:34 84° 104° (ESE) 02:33:05 435.910
MOZHAYETS 4 25 Jul 02:25:58 02:26:54 11° 50° (NE) 02:27:51
AIST 1 25 Jul 02:30:51 02:34:29 27° 271° (W) 02:38:08
Oscar 19 25 Jul 02:31:44 02:36:30 36° 96° (E) 02:41:16 437.125/150
SWISSCUBE 25 Jul 02:33:51 02:38:36 68° 71° (ENE) 02:43:23 437.505
QB50P2 25 Jul 02:38:31 02:41:42 21° 300° (WNW) 02:44:53 145.880/145.840
POLYITAN 1 25 Jul 02:41:10 02:44:21 20° 300° (WNW) 02:47:31 437.675
Cosmos 2491 25 Jul 02:44:42 02:47:22 11° 326° (NNW) 02:50:04 435.465 / 435.565
BEESAT 25 Jul 02:55:29 03:00:17 88° 254° (WSW) 03:05:07 436.000
STARS 25 Jul 02:56:17 02:56:42 10° 50° (NE) 02:57:08 437.465
GONETS M04 25 Jul 03:16:37 03:25:26 70° 76° (ENE) 03:34:15
ITUPSAT 1 25 Jul 03:17:02 03:21:47 59° 258° (WSW) 03:26:34 437.325
PCSat 25 Jul 03:25:05 03:29:34 25° 28° (NNE) 03:34:01 145.827
BEESAT 3 25 Jul 03:26:42 03:30:32 44° 40° (NE) 03:34:21 437.485
BEESAT 2 25 Jul 03:27:45 03:31:23 31° 35° (NE) 03:35:00 435.950
AIST 2 25 Jul 03:29:09 03:31:19 14° 5° (N) 03:33:30 435.215
Gurwin Techsat 1B 25 Jul 03:31:32 03:36:47 54° 100° (E) 03:41:59 435.225
ISS 25 Jul 03:36:39 03:39:54 70° 195° (SSW) 03:43:10 145.825
KKS-1 25 Jul 03:42:35 03:46:44 40° 66° (ENE) 03:50:55 437.445
Cosmos 2499 25 Jul 03:44:56 03:53:07 74° 76° (ENE) 04:00:37 435.465 / 435.565
MOZHAYETS 4 25 Jul 03:58:35 04:03:07 56° 70° (ENE) 04:07:41
ITAMSAT 1 25 Jul 04:00:35 04:05:23 36° 96° (E) 04:10:07 435.822/435.867
JAS-2 25 Jul 04:08:36 04:12:09 19° 306° (NW) 04:15:46 435.910
Oscar 19 25 Jul 04:11:05 04:15:54 40° 296° (WNW) 04:20:41 437.125/150
SWISSCUBE 25 Jul 04:13:28 04:16:53 19° 270° (W) 04:20:18 437.505
STARS 25 Jul 04:27:50 04:32:08 56° 70° (ENE) 04:36:30 437.465
BEESAT 25 Jul 04:36:24 04:38:48 14° 274° (W) 04:41:14 436.000
AO-7 25 Jul 04:52:55 05:00:53 45° 99° (E) 05:08:45 29.400- 29.500
BEESAT 3 25 Jul 05:04:37 05:08:07 30° 240° (WSW) 05:11:35 437.485
BEESAT 2 25 Jul 05:05:30 05:09:23 49° 235° (SW) 05:13:15 435.950
AIST 2 25 Jul 05:07:41 05:11:10 25° 29° (NNE) 05:14:40 435.215
PCSat 25 Jul 05:08:20 05:13:49 78° 52° (NE) 05:19:14 145.827
DANDE 25 Jul 05:09:43 05:14:45 37° 97° (E) 05:18:37 436.750
CUSAT 1 25 Jul 05:10:55 05:14:59 86° 95° (E) 05:18:10 437.405
O/OREOS (USA 219) 25 Jul 05:11:22 05:13:22 13° 33° (NNE) 05:15:23 437.305
CUBESAT XI-V 25 Jul 05:11:33 05:15:54 42° 67° (ENE) 05:20:14 437.345
Gurwin Techsat 1B 25 Jul 05:11:56 05:16:29 29° 300° (WNW) 05:21:00 435.225
ISS 25 Jul 05:13:22 05:15:59 22° 214° (SW) 05:18:36 145.825
GONETS M04 25 Jul 05:14:07 05:21:39 33° 279° (W) 05:29:11
KKS-1 25 Jul 05:19:34 05:23:25 28° 265° (W) 05:27:19 437.445
MOZHAYETS 4 25 Jul 05:37:03 05:40:38 22° 269° (W) 05:44:14
Cosmos 2499 25 Jul 05:38:55 05:45:26 28° 281° (W) 05:51:34 435.465 / 435.565
ITAMSAT 1 25 Jul 05:40:03 05:44:55 41° 296° (WNW) 05:49:46 435.822/435.867
STRAND 1 25 Jul 05:45:38 05:47:49 13° 48° (NE) 05:50:00 437.568
BRITE-PL 25 Jul 06:01:50 06:03:30 12° 86° (E) 06:05:12 437.365/2234.400
STARS 25 Jul 06:05:36 06:08:52 20° 269° (W) 06:12:09 437.465
HORYU 2 25 Jul 06:28:27 06:32:54 55° 101° (E) 06:37:18 437.375
Cubesat XI-IV 25 Jul 06:37:52 06:41:06 16° 86° (E) 06:44:20 437.490
AO-7 25 Jul 06:45:47 06:53:54 57° 301° (WNW) 07:01:57 29.400- 29.500
AIST 2 25 Jul 06:45:56 06:50:08 80° 230° (SW) 06:54:18 435.215
RS-15 25 Jul 06:46:27 06:55:10 26° 100° (E) 07:04:11 29.354- 29.394
Cosmos 2491 25 Jul 06:48:57 06:52:58 14° 38° (NE) 06:56:59 435.465 / 435.565
CUBESAT XI-V 25 Jul 06:49:25 06:53:25 28° 266° (W) 06:57:26 437.345
O/OREOS (USA 219) 25 Jul 06:49:28 06:53:54 50° 56° (NE) 06:58:19 437.305
PCSat 25 Jul 06:52:33 06:56:40 22° 251° (WSW) 07:00:45 145.827
DANDE 25 Jul 06:52:56 06:57:32 29° 289° (WNW) 07:01:09 436.750
CUTE-I 25 Jul 07:01:34 07:05:55 25° 91° (E) 07:10:14 437.470
GOMX 1 25 Jul 07:14:20 07:18:29 27° 93° (E) 07:22:52 467.674
NOAA 18 25 Jul 07:17:41 07:22:39 32° 95° (E) 07:27:34 137.9125
DOVE 4 25 Jul 07:19:48 07:23:01 17° 87° (E) 07:26:18 437.250
STRAND 1 25 Jul 07:20:57 07:26:01 59° 69° (ENE) 07:31:05 437.568
NOAA 15 25 Jul 07:29:01 07:34:08 50° 100° (E) 07:39:15 137.62
PRISM 25 Jul 07:34:53 07:36:49 13° 55° (NE) 07:38:43 437.425
BRITE-PL 25 Jul 07:38:03 07:42:42 77° 104° (ESE) 07:47:42 437.365/2234.400
LilacSat-2 25 Jul 07:44:16 07:48:07 53° 100° (E) 07:51:53 437.200
CINEMA 3 25 Jul 07:50:43 07:51:09 10° 82° (E) 07:51:36 145.822/145.860
HORYU 2 25 Jul 08:05:37 08:09:09 23° 300° (WNW) 08:12:39 437.375
CANX-2 25 Jul 08:10:10 08:11:19 11° 85° (E) 08:12:29 2200.000
Cubesat XI-IV 25 Jul 08:16:33 08:21:58 89° 103° (ESE) 08:27:20 437.490
CUTE 1.7 + AOD 2 25 Jul 08:23:18 08:25:21 13° 87° (E) 08:27:23 437.475
AIST 2 25 Jul 08:26:08 08:27:56 13° 249° (WSW) 08:29:44 435.215
O/OREOS (USA 219) 25 Jul 08:29:21 08:33:02 25° 256° (WSW) 08:36:43 437.305
YUBILEINY 25 Jul 08:31:56 08:34:26 11° 64° (ENE) 08:36:56 435.215
AO-7 25 Jul 08:39:24 08:45:03 21° 325° (NW) 08:50:41 29.400- 29.500
SO-50 25 Jul 08:40:19 08:42:49 14° 110° (ESE) 08:45:19 436.795
CUTE-I 25 Jul 08:41:05 08:46:24 61° 291° (WNW) 08:51:37 437.470
Cosmos 2491 25 Jul 08:44:29 08:52:48 44° 66° (ENE) 09:01:05 435.465 / 435.565
HO-68 25 Jul 08:47:15 08:53:34 32° 93° (E) 08:59:50 435.675
GOMX 1 25 Jul 08:52:05 08:56:48 51° 290° (WNW) 09:01:49 467.674
RS-15 25 Jul 08:54:05 09:05:39 78° 125° (SE) 09:17:51 29.354- 29.394
DOVE 4 25 Jul 08:56:16 09:01:19 86° 285° (WNW) 09:06:33 437.250
NOAA 18 25 Jul 08:58:10 09:03:31 50° 295° (WNW) 09:08:51 137.9125
STRAND 1 25 Jul 09:01:23 09:05:34 24° 268° (W) 09:09:45 437.568
SEEDS 25 Jul 09:05:37 09:09:04 24° 93° (E) 09:12:28 437.485
PRISM 25 Jul 09:07:25 09:11:30 87° 75° (ENE) 09:15:36 437.425
NOAA 15 25 Jul 09:09:10 09:13:45 31° 300° (WNW) 09:18:19 137.62
CUBEBUG 2 25 Jul 09:10:47 09:14:02 18° 88° (E) 09:17:13 437.445
BRITE-PL 25 Jul 09:17:36 09:20:46 19° 301° (WNW) 09:24:05 437.365/2234.400
LilacSat-2 25 Jul 09:19:21 09:22:04 18° 299° (WNW) 09:24:47 437.200
TIGRISAT 25 Jul 09:19:38 09:22:30 16° 55° (NE) 09:25:25 435.000
COMPASS 1 25 Jul 09:21:35 09:25:04 25° 93° (E) 09:28:29 437.405
CINEMA 3 25 Jul 09:24:16 09:29:16 63° 101° (E) 09:34:15 145.822/145.860
UNISAT 6 25 Jul 09:34:24 09:37:56 22° 59° (ENE) 09:41:32 437.425
Cosmos 2504 25 Jul 09:43:23 09:45:44 11° 64° (ENE) 09:48:04 435.465 / 435.565
CANX-2 25 Jul 09:43:37 09:47:53 85° 101° (E) 09:52:06 2200.000
Oscar 11 25 Jul 09:45:23 09:48:11 17° 89° (E) 09:50:58 145.826/435.025
AAUSAT CUBESAT 2 25 Jul 09:51:52 09:55:47 39° 98° (E) 09:59:39 437.432
CUTE 1.7 + AOD 2 25 Jul 09:57:32 10:01:47 80° 287° (WNW) 10:05:59 437.475
Cubesat XI-IV 25 Jul 09:57:38 10:01:23 20° 307° (NW) 10:05:07 437.490
ANTELSAT 25 Jul 10:11:53 10:16:16 42° 67° (ENE) 10:20:43 437.575/2403.000
SO-50 25 Jul 10:17:41 10:22:33 74° 128° (SE) 10:27:23 436.795
YUBILEINY 25 Jul 10:20:36 10:28:55 50° 88° (E) 10:37:18 435.215
CUTE-I 25 Jul 10:22:51 10:25:26 14° 312° (NW) 10:28:01 437.470
QB50P2 25 Jul 10:26:26 10:28:36 14° 55° (NE) 10:30:45 145.880/145.840
UWE-3 25 Jul 10:28:54 10:33:33 60° 101° (E) 10:38:04 435.000/436.395/437.385
POLYITAN 1 25 Jul 10:29:00 10:31:13 14° 55° (NE) 10:33:27 437.675
AUBIESAT-1 25 Jul 10:29:38 10:31:26 12° 91° (E) 10:33:15 437.475
GOMX 1 25 Jul 10:33:06 10:33:57 10° 309° (NW) 10:34:49 467.674
AO-7 25 Jul 10:33:16 10:34:39 10° 352° (N) 10:36:03 29.400- 29.500
DELFI C3 25 Jul 10:33:24 10:36:27 21° 92° (E) 10:39:29 145.870
HUMSAT D 25 Jul 10:34:01 10:35:42 12° 86° (E) 10:37:23 437.325/437.525
ZACube-1 25 Jul 10:34:31 10:38:57 46° 98° (E) 10:43:15 437.345
HO-68 25 Jul 10:34:40 10:41:49 67° 294° (WNW) 10:48:56 435.675
FUNcube-1 25 Jul 10:34:51 10:39:13 44° 98° (E) 10:43:28 145.935
DOVE 4 25 Jul 10:35:11 10:38:22 17° 304° (NW) 10:41:39 437.250
NOAA 18 25 Jul 10:40:53 10:43:00 12° 316° (NW) 10:45:07 137.9125
SEEDS 25 Jul 10:40:59 10:44:57 41° 292° (WNW) 10:48:52 437.485
Cosmos 2491 25 Jul 10:41:30 10:49:55 55° 270° (W) 10:58:21 435.465 / 435.565
PRISM 25 Jul 10:46:02 10:47:26 11° 273° (W) 10:48:50 437.425
CUBEBUG 2 25 Jul 10:46:24 10:51:10 71° 287° (WNW) 10:55:50 437.445
TIGRISAT 25 Jul 10:53:54 10:58:33 90° 238° (WSW) 11:03:17 435.000
COMPASS 1 25 Jul 10:56:52 11:00:46 39° 292° (WNW) 11:04:37 437.405
JAS-2 25 Jul 10:58:26 11:01:27 15° 51° (NE) 11:04:21 435.910
CINEMA 3 25 Jul 11:02:02 11:06:01 24° 300° (WNW) 11:10:01 145.822/145.860
RS-15 25 Jul 11:07:35 11:19:08 54° 335° (NNW) 11:31:12 29.354- 29.394
UNISAT 6 25 Jul 11:09:39 11:14:15 63° 259° (WSW) 11:18:57 437.425
NANOSAT C BR1 25 Jul 11:12:24 11:16:04 29° 64° (ENE) 11:19:46 145.865
DUCHIFAT 1 25 Jul 11:17:41 11:21:23 31° 65° (ENE) 11:25:09 145.980
Oscar 11 25 Jul 11:20:28 11:24:47 66° 288° (WNW) 11:29:03 145.826/435.025
CANX-2 25 Jul 11:20:50 11:23:10 15° 303° (WNW) 11:25:30 2200.000
AAUSAT CUBESAT 2 25 Jul 11:27:42 11:31:07 26° 296° (WNW) 11:34:32 437.432
Cosmos 2504 25 Jul 11:28:32 11:36:52 48° 87° (E) 11:45:08 435.465 / 435.565
QB50P1 25 Jul 11:33:04 11:37:08 46° 69° (ENE) 11:41:14 145.935-145.965
M-CUBED/EXP-1 PRIME 25 Jul 11:34:00 11:38:32 51° 106° (ESE) 11:43:08 437.505
CUTE 1.7 + AOD 2 25 Jul 11:35:06 11:36:56 13° 305° (NW) 11:38:46 437.475
POPSAT HIP 1 25 Jul 11:39:13 11:43:21 52° 70° (ENE) 11:47:33 437.405
BUGSAT 1 25 Jul 11:41:26 11:44:49 26° 63° (ENE) 11:48:16 437.445
ANTELSAT 25 Jul 11:49:03 11:53:06 29° 266° (W) 11:57:15 437.575/2403.000
SO-50 25 Jul 11:59:08 12:03:29 31° 330° (NNW) 12:07:46 436.795
QB50P2 25 Jul 11:59:29 12:03:45 86° 75° (ENE) 12:08:04 145.880/145.840
AUBIESAT-1 25 Jul 12:01:58 12:06:35 76° 109° (ESE) 12:11:15 437.475
POLYITAN 1 25 Jul 12:02:06 12:06:23 87° 71° (ENE) 12:10:43 437.675
UWE-3 25 Jul 12:06:01 12:09:37 22° 300° (WNW) 12:13:10 435.000/436.395/437.385
HUMSAT D 25 Jul 12:07:43 12:11:59 87° 282° (WNW) 12:16:10 437.325/437.525
DELFI C3 25 Jul 12:07:46 12:11:31 43° 291° (WNW) 12:15:15 145.870
ESTCUBE 1 25 Jul 12:11:02 12:14:35 22° 92° (E) 12:18:06 437.505/2401.250
ZACube-1 25 Jul 12:11:13 12:15:02 26° 298° (WNW) 12:18:45 437.345
FUNcube-1 25 Jul 12:11:26 12:15:17 27° 297° (WNW) 12:19:03 145.935
Oscar 19 25 Jul 12:17:02 12:20:22 18° 53° (NE) 12:23:42 437.125/150
YUBILEINY 25 Jul 12:17:22 12:25:49 49° 292° (WNW) 12:34:22 435.215
AO-7 25 Jul 12:20:31 12:23:51 13° 20° (NNE) 12:27:11 29.400- 29.500
HO-68 25 Jul 12:23:25 12:28:22 20° 316° (NW) 12:33:19 435.675
CUBEBUG 2 25 Jul 12:24:39 12:26:58 14° 307° (NW) 12:29:15 437.445
50 SAT 25 Jul 12:30:17 12:32:51 18° 92° (E) 12:35:24 437.505
TIGRISAT 25 Jul 12:33:35 12:35:57 14° 274° (W) 12:38:20 435.000
VELOX 1 25 Jul 12:36:33 12:40:08 23° 93° (E) 12:43:43 145.980
JAS-2 25 Jul 12:39:51 12:45:46 69° 71° (ENE) 12:51:09 435.910
Cosmos 2491 25 Jul 12:41:13 12:44:39 13° 294° (WNW) 12:48:07 435.465 / 435.565
CUBEBUG 1 25 Jul 12:43:03 12:46:56 30° 95° (E) 12:50:49 437.445
SPROUT 25 Jul 12:47:46 12:50:27 16° 89° (E) 12:53:06 437.525
NANOSAT C BR1 25 Jul 12:47:47 12:51:43 37° 263° (W) 12:55:42 145.865
DUCHIFAT 1 25 Jul 12:53:10 12:57:03 35° 264° (W) 13:00:59 145.980
Oscar 11 25 Jul 12:58:51 13:00:06 11° 307° (NW) 13:01:21 145.826/435.025
M-CUBED/EXP-1 PRIME 25 Jul 13:08:54 13:12:49 28° 304° (NW) 13:16:50 437.505
QB50P1 25 Jul 13:09:45 13:13:09 23° 268° (W) 13:16:34 145.935-145.965
BUGSAT 1 25 Jul 13:16:11 13:20:03 40° 262° (W) 13:24:00 437.445
POPSAT HIP 1 25 Jul 13:16:14 13:19:27 21° 269° (W) 13:22:41 437.405
Gurwin Techsat 1B 25 Jul 13:19:30 13:23:55 27° 59° (ENE) 13:28:19 435.225
AISAT 25 Jul 13:20:39 13:25:05 61° 102° (ESE) 13:29:30 437.250
Cosmos 2504 25 Jul 13:21:36 13:30:15 53° 290° (WNW) 13:38:50 435.465 / 435.565
RS-15 25 Jul 13:23:10 13:34:42 45° 8° (N) 13:46:27 29.354- 29.394
DX 1 25 Jul 13:27:40 13:31:57 51° 101° (E) 13:36:13 434.975-435.025
AIST 1 25 Jul 13:29:20 13:32:01 17° 84° (E) 13:34:43
AUBIESAT-1 25 Jul 13:37:13 13:40:35 21° 308° (NW) 13:44:00 437.475
QB50P2 25 Jul 13:38:16 13:40:11 13° 273° (W) 13:42:06 145.880/145.840
POLYITAN 1 25 Jul 13:40:59 13:42:50 12° 274° (W) 13:44:42 437.675
SO-50 25 Jul 13:42:06 13:45:21 18° 354° (N) 13:48:35 436.795
HUMSAT D 25 Jul 13:44:50 13:46:57 14° 305° (NW) 13:49:04 437.325/437.525
UKube-1 25 Jul 13:45:12 13:49:31 60° 102° (ESE) 13:53:48 .
ITAMSAT 1 25 Jul 13:46:39 13:50:13 19° 53° (NE) 13:53:48 435.822/435.867
ESTCUBE 1 25 Jul 13:47:19 13:51:41 51° 291° (WNW) 13:56:02 437.505/2401.250
TISAT 1 25 Jul 13:50:30 13:53:23 17° 90° (E) 13:56:16 437.305
Oscar 19 25 Jul 13:53:53 13:59:01 87° 73° (ENE) 14:04:11 437.125/150
50 SAT 25 Jul 14:03:17 14:06:43 42° 290° (WNW) 14:10:07 437.505
AO-7 25 Jul 14:07:05 14:14:02 31° 46° (NE) 14:20:59 29.400- 29.500
VELOX 1 25 Jul 14:12:34 14:16:51 48° 292° (WNW) 14:21:08 145.980
AO-85 25 Jul 14:14:29 14:17:21 15° 110° (ESE) 14:20:10 145.980
CUBEBUG 1 25 Jul 14:19:15 14:23:18 37° 294° (WNW) 14:27:20 437.445
YUBILEINY 25 Jul 14:20:43 14:25:25 15° 320° (NW) 14:30:09 435.215
SPROUT 25 Jul 14:22:33 14:26:53 70° 287° (WNW) 14:31:11 437.525
JAS-2 25 Jul 14:26:47 14:31:20 22° 268° (W) 14:35:36 435.910
SWISSCUBE 25 Jul 14:30:44 14:32:18 11° 85° (E) 14:33:52 437.505
GONETS M04 25 Jul 14:32:48 14:37:36 16° 70° (ENE) 14:42:26
Cosmos 2499 25 Jul 14:40:03 14:43:40 13° 68° (ENE) 14:47:14 435.465 / 435.565
BEESAT 25 Jul 14:51:12 14:54:12 16° 88° (E) 14:57:10 436.000
AISAT 25 Jul 14:57:52 15:01:12 21° 301° (WNW) 15:04:31 437.250
Gurwin Techsat 1B 25 Jul 14:58:17 15:03:32 60° 259° (WSW) 15:08:50 435.225
DX 1 25 Jul 15:04:24 15:07:53 24° 299° (WNW) 15:11:21 434.975-435.025
AIST 1 25 Jul 15:04:56 15:09:09 60° 284° (WNW) 15:13:24
ITUPSAT 1 25 Jul 15:12:24 15:16:17 24° 92° (E) 15:20:08 437.325
Cosmos 2504 25 Jul 15:20:48 15:26:04 17° 316° (NW) 15:31:17 435.465 / 435.565
UKube-1 25 Jul 15:22:01 15:25:12 20° 301° (WNW) 15:28:22 .
SO-50 25 Jul 15:23:44 15:27:27 22° 19° (NNE) 15:31:05 436.795
ITAMSAT 1 25 Jul 15:23:48 15:29:03 90° 266° (W) 15:34:19 435.822/435.867
TISAT 1 25 Jul 15:25:13 15:29:27 62° 289° (WNW) 15:33:39 437.305
Oscar 19 25 Jul 15:35:58 15:39:04 16° 273° (W) 15:42:11 437.125/150
RS-15 25 Jul 15:37:15 15:49:36 71° 39° (NE) 16:01:56 29.354- 29.394
CUSAT 1 25 Jul 15:37:19 15:40:02 87° 79° (E) 15:43:11 437.405
DANDE 25 Jul 15:42:29 15:44:42 23° 69° (ENE) 15:46:54 436.750
AO-85 25 Jul 15:51:49 15:57:08 71° 128° (SE) 16:02:09 145.980
HORYU 2 25 Jul 15:57:05 15:59:56 17° 55° (NE) 16:02:46 437.375
AO-7 25 Jul 15:57:32 16:05:56 89° 57° (ENE) 16:14:23 29.400- 29.500
SPROUT 25 Jul 16:00:32 16:02:03 12° 307° (NW) 16:03:35 437.525
SWISSCUBE 25 Jul 16:06:09 16:10:57 76° 104° (ESE) 16:15:42 437.505
GONETS M04 25 Jul 16:24:06 16:32:39 66° 93° (E) 16:41:16
Cosmos 2499 25 Jul 16:26:19 16:34:51 54° 90° (E) 16:43:07 435.465 / 435.565
BEESAT 25 Jul 16:27:47 16:32:36 79° 286° (WNW) 16:37:21 436.000
Cubesat XI-IV 25 Jul 16:30:04 16:30:47 10° 44° (NE) 16:31:29 437.490
ITUPSAT 1 25 Jul 16:49:46 16:54:26 53° 291° (WNW) 16:59:03 437.325
CUTE-I 25 Jul 16:51:48 16:54:40 15° 49° (NE) 16:57:31 437.470
TISAT 1 25 Jul 17:03:31 17:04:16 10° 308° (NW) 17:05:01 437.305
SO-50 25 Jul 17:04:09 17:08:50 59° 41° (NE) 17:13:22 436.795
KKS-1 25 Jul 17:04:15 17:08:27 37° 97° (E) 17:12:37 437.445
ITAMSAT 1 25 Jul 17:06:08 17:09:16 16° 273° (W) 17:12:24 435.822/435.867
NOAA 18 25 Jul 17:10:49 17:14:52 21° 53° (NE) 17:18:56 137.9125
NOAA 15 25 Jul 17:16:16 17:20:30 25° 58° (ENE) 17:24:44 137.62
BRITE-PL 25 Jul 17:17:51 17:20:57 21° 60° (ENE) 17:24:06 437.365/2234.400
MOZHAYETS 4 25 Jul 17:25:04 17:29:38 63° 101° (E) 17:34:10
DANDE 25 Jul 17:26:12 17:27:14 12° 270° (W) 17:28:15 436.750
HORYU 2 25 Jul 17:31:25 17:35:55 83° 256° (WSW) 17:40:28 437.375
AO-85 25 Jul 17:33:18 17:38:01 33° 328° (NNW) 17:42:29 145.980
HO-68 25 Jul 17:38:50 17:42:09 14° 35° (NE) 17:45:28 435.675
SWISSCUBE 25 Jul 17:44:53 17:48:14 19° 304° (NW) 17:51:35 437.505
STARS 25 Jul 17:47:55 17:52:16 51° 100° (E) 17:56:36 437.465
RS-15 25 Jul 17:50:13 18:01:51 52° 246° (WSW) 18:13:25 29.354- 29.394
AO-7 25 Jul 17:53:10 17:59:48 25° 270° (W) 18:06:29 29.400- 29.500
Cubesat XI-IV 25 Jul 18:04:31 18:09:35 44° 65° (ENE) 18:14:40 437.490
BEESAT 25 Jul 18:07:00 18:09:38 15° 307° (NW) 18:12:16 436.000
Cosmos 2499 25 Jul 18:19:41 18:28:10 47° 292° (WNW) 18:36:24 435.465 / 435.565
GONETS M04 25 Jul 18:22:12 18:30:06 37° 297° (WNW) 18:38:06
GOMX 1 25 Jul 18:28:12 18:32:11 43° 68° (ENE) 18:36:21 467.674
CUTE-I 25 Jul 18:28:27 18:33:47 66° 70° (ENE) 18:39:08 437.470
YUBILEINY 25 Jul 18:28:56 18:30:58 11° 31° (NNE) 18:33:00 435.215
ITUPSAT 1 25 Jul 18:30:14 18:31:15 11° 312° (NW) 18:32:17 437.325
DOVE 4 25 Jul 18:30:44 18:34:18 25° 61° (ENE) 18:38:02 437.250
LilacSat-2 25 Jul 18:31:05 18:34:53 57° 72° (ENE) 18:38:45 437.200
CUBESAT XI-V 25 Jul 18:39:30 18:43:59 48° 99° (E) 18:48:27 437.345
KKS-1 25 Jul 18:40:59 18:44:57 32° 296° (WNW) 18:48:56 437.445
SO-50 25 Jul 18:45:07 18:49:02 27° 243° (WSW) 18:52:50 436.795
NOAA 18 25 Jul 18:49:20 18:54:54 86° 253° (WSW) 19:00:31 137.9125
NOAA 15 25 Jul 18:54:43 18:59:55 64° 257° (WSW) 19:05:09 137.62
BRITE-PL 25 Jul 18:55:09 18:59:11 51° 261° (W) 19:03:18 437.365/2234.400
CINEMA 3 25 Jul 18:56:02 18:59:03 17° 55° (NE) 19:02:08 145.822/145.860
BEESAT 3 25 Jul 19:02:22 19:03:27 11° 110° (ESE) 19:04:32 437.485
MOZHAYETS 4 25 Jul 19:02:59 19:06:25 21° 301° (WNW) 19:09:50
CANX-2 25 Jul 19:07:18 19:10:09 18° 59° (ENE) 19:12:59 2200.000
HORYU 2 25 Jul 19:11:31 19:13:12 12° 274° (W) 19:14:55 437.375
AO-85 25 Jul 19:16:27 19:19:51 18° 351° (N) 19:23:06 145.980
CUTE 1.7 + AOD 2 25 Jul 19:20:43 19:23:51 20° 60° (ENE) 19:26:59 437.475
HO-68 25 Jul 19:21:27 19:28:06 43° 58° (ENE) 19:34:48 435.675
STARS 25 Jul 19:24:48 19:28:23 24° 299° (WNW) 19:31:57 437.465
STRAND 1 25 Jul 19:27:39 19:29:59 13° 85° (E) 19:32:17 437.568
Cubesat XI-IV 25 Jul 19:44:51 19:49:46 35° 264° (W) 19:54:43 437.490
PCSat 25 Jul 19:56:34 20:00:38 22° 109° (ESE) 20:04:44 145.827
UWE-3 25 Jul 19:56:37 19:59:24 16° 55° (NE) 20:02:12 435.000/436.395/437.385
ZACube-1 25 Jul 20:02:04 20:04:02 13° 53° (NE) 20:06:00 437.345
SEEDS 25 Jul 20:02:13 20:06:03 34° 66° (ENE) 20:09:52 437.485
FUNcube-1 25 Jul 20:02:21 20:04:06 12° 52° (NE) 20:05:52 145.935
RS-15 25 Jul 20:06:16 20:11:05 13° 271° (W) 20:15:54 29.354- 29.394
LilacSat-2 25 Jul 20:07:07 20:09:34 16° 271° (W) 20:12:01 437.200
GOMX 1 25 Jul 20:07:09 20:10:33 24° 269° (W) 20:14:04 467.674
DOVE 4 25 Jul 20:07:37 20:11:46 46° 262° (W) 20:16:11 437.250
CUTE-I 25 Jul 20:10:04 20:14:17 23° 269° (W) 20:18:33 437.470
CUBEBUG 2 25 Jul 20:13:37 20:17:33 28° 62° (ENE) 20:21:34 437.445
COMPASS 1 25 Jul 20:17:14 20:21:02 34° 66° (ENE) 20:24:50 437.405
CUBESAT XI-V 25 Jul 20:17:21 20:21:09 26° 298° (WNW) 20:24:57 437.345
PHONESAT 2.4 25 Jul 20:18:25 20:18:54 10° 173° (S) 20:19:23 2401.200-2431.200
Cosmos 2499 25 Jul 20:19:27 20:23:54 15° 318° (NW) 20:28:17 435.465 / 435.565
YUBILEINY 25 Jul 20:23:29 20:31:25 35° 61° (ENE) 20:39:18 435.215
GONETS M04 25 Jul 20:27:43 20:30:22 11° 327° (NNW) 20:33:01
CINEMA 3 25 Jul 20:30:59 20:35:32 84° 254° (WSW) 20:40:21 145.822/145.860
NOAA 18 25 Jul 20:33:02 20:36:23 16° 273° (W) 20:39:47 137.9125
BEESAT 3 25 Jul 20:36:30 20:40:25 76° 129° (SE) 20:44:23 437.485
BEESAT 2 25 Jul 20:39:19 20:43:08 48° 125° (SE) 20:47:00 435.950
NOAA 15 25 Jul 20:39:48 20:40:46 10° 277° (W) 20:41:44 137.62
CANX-2 25 Jul 20:41:16 20:45:33 70° 258° (WSW) 20:49:50 2200.000
Oscar 11 25 Jul 20:44:57 20:48:34 26° 63° (ENE) 20:52:10 145.826/435.025
AAUSAT CUBESAT 2 25 Jul 20:46:56 20:50:59 53° 71° (ENE) 20:55:03 437.432
M-CUBED/EXP-1 PRIME 25 Jul 20:52:23 20:55:23 21° 52° (NE) 20:58:35 437.505
CUTE 1.7 + AOD 2 25 Jul 20:55:07 20:59:21 58° 260° (W) 21:03:35 437.475
AO-85 25 Jul 20:58:24 21:01:59 20° 16° (NNE) 21:05:22 145.980
STRAND 1 25 Jul 21:04:53 21:10:02 78° 105° (ESE) 21:15:08 437.568
O/OREOS (USA 219) 25 Jul 21:08:28 21:11:38 19° 102° (ESE) 21:14:48 437.305
HO-68 25 Jul 21:08:45 21:15:44 53° 259° (W) 21:22:48 435.675
Cosmos 2504 25 Jul 21:14:50 21:21:37 26° 55° (NE) 21:28:00 435.465 / 435.565
AUBIESAT-1 25 Jul 21:19:22 21:22:48 30° 57° (ENE) 21:26:31 437.475
DELFI C3 25 Jul 21:24:18 21:27:39 27° 65° (ENE) 21:31:01 145.870
HUMSAT D 25 Jul 21:29:46 21:32:48 19° 59° (ENE) 21:35:51 437.325/437.525
UWE-3 25 Jul 21:30:35 21:35:11 89° 75° (ENE) 21:39:55 435.000/436.395/437.385
ZACube-1 25 Jul 21:34:58 21:39:30 70° 73° (ENE) 21:44:06 437.345
FUNcube-1 25 Jul 21:34:59 21:39:30 66° 72° (ENE) 21:44:04 145.935
SEEDS 25 Jul 21:38:01 21:41:47 30° 265° (W) 21:45:33 437.485
PCSat 25 Jul 21:38:03 21:43:28 79° 308° (NW) 21:48:57 145.827
